EHI
0 0 0 0 0 0 0 0 0 0 0 0 0 0 0 0 0 0 0 0 0 0 0 0 0 0 0 0 0 0 0 0 0 0 0 0 0 0 0 0 0 0 0 0
0 0 0 0 0 0 0 0 0 0 0 0 0 0 0 0 0 0 0 0 0 0 0 0 0 0 0 0 0 0 0 0 0 0 0 0 0 0 0 0 0 0 0 0
0 0 0 0 0 0 0 0 0 0 0 0 0 0 0 0 0 0 0 0 0 0 0 0 0 0 0 0 0 0 0 0 0 0 0 0 0 0 0 0 0 0 0 0
0 0 0 0 0 0 0 0 0 0 0 0 0 0 0 0 0 0 0 0 0 0 0 0 0 0 0 0 0 0 0 0 0 0 0 0 0 0 0 0 0 0 0 0
0 0 0 0 0 0 0 0 0 0 0 0 0 0 0 0 0 0 0 0 0 0 0 0 0 0 0 0 0 0 0 0 0 0 0 0 0 0 0 0 0 0 0 0
0 0 0 0 0 0 0 0 0 0 0 0 0 0 0 0 0 0 0 0 0 0 0 0 0 0 0 0 0 0 0 0 0 0 0 0 0 0 0 0 0 0 0 0
0 0 0 0 0 0 0 0 0 0 0 0 0 0 0 0 0 0 0 0 0 0 0 0 0 0 0 0 0 0 0 0 0 0 0 0 0 0 0 0 0 0 0 0
0 0 0 0 0 0 0 0 0 0 0 0 0 0 0 0 0 0 0 0 0 0 0 0 0 0 0 0 0 0 0 0 0 0 0 0 0 0 0 0 0 0 0 0
0 0 0 0 0 0 0 0 0 0 0 0 0 0 0 0 0 0 0 0 0 0 0 0 0 0 0 0 0 0 0 0 0 0 0 0 0 0 0 0 0 0 0 0
0 0 0 0 0 0 0 0 0 0 0 0 0 0 0 0 0 0 0 0 0 0 0 0 0 0 0 0 0 0 0 0 0 0 0 0 0 0 0 0 0 0 0 0
0 0 0 0 0 0 0 0 0 0 0 0 0 0 0 0 0 0 0 0 0 0 0 0 0 0 0 0 0 0 0 0 0 0 0 0 0 0 0 0 0 0 0 0
0 0 0 0 0 0 0 0 0 0 0 0 0 0 0 0 0 0 0 0 0 0 0 0 0 0 0 0 0 0 0 0 0 0 0 0 0 0 0 0 0 0 0 0
0 0 0 0 0 0 0 0 0 0 0 0 0 0 0 0 0 0 0 0 0 0 0 0 0 0 0 0 0 0 0 0 0 0 0 0 0 0 0 0 0 0 0 0
0 0 0 0 0 0 0 0 0 0 0 0 0 0 0 0 0 0 0 0 0 0 0 0 0 0 0 0 0 0 0 0 0 0 0 0 0 0 0 0 0 0 0 0
0 0 0 0 0 0 0 0 0 0 0 0 0 0 0 0 0 0 0 0 0 0 0 0 0 0 0 0 0 0 0 0 0 0 0 0 0 0 0 0 0 0 0 0
0 0 0 0 0 0 0 0 0 0 0 0 0 0 0 0 0 0 0 0 0 0 0 0 0 0 0 0 0 0 0 0 0 0 0 0 0 0 0 0 0 0 0 0
0 0 0 0 0 0 0 0 0 0 0 0 0 0 0 0 0 0 0 0 0 0 0 0 0 0 0 0 0 0 0 0 0 0 0 0 0 0 0 0 0 0 0 0
0 0 0 0 0 0 0 0 0 0 0 0 0 0 0 0 0 0 0 0 0 0 0 0 0 0 0 0 0 0 0 0 0 0 0 0 0 0 0 0 0 0 0 0
0 0 0 0 0 0 0 0 0 0 0 0 0 0 0 0 0 0 0 0 0 0 0 0 0 0 0 0 0 0 0 0 0 0 0 0 0 0 0 0 0 0 0 0
0 0 0 0 0 0 0 0 0 0 0 0 0 0 0 0 0 0 0 0 0 0 0 0 0 0 0 0 0 0 0 0 0 0 0 0 0 0 0 0 0 0 0 0
0 0 0 0 0 0 0 0 0 0 0 0 0 0 0 0 0 0 0 0 0 0 0 0 0 0 0 0 0 0 0 0 0 0 0 0 0 0 0 0 0 0 0 0
0 0 0 0 0 0 0 0 0 0 0 0 0 0 0 0 0 0 0 0 0 0 0 0 0 0 0 0 0 0 0 0 0 0 0 0 0 0 0 0 0 0 0 0
0 0 0 0 0 0 0 0 0 0 0 0 0 0 0 0 0 0 0 0 0 0 0 0 0 0 0 0 0 0 0 0 0 0 0 0 0 0 0 0 0 0 0 0
0 0 0 0 0 0 0 0 0 0 0 0 0 0 0 0 0 0 0 0 0 0 0 0 0 0 0 0 0 0 0 0 0 0 0 0 0 0 0 0 0 0 0 0
0 0 0 0 0 0 0 0 0 0 0 0 0 0 0 0 0 0 0 0 0 0 0 0 0 0 0 0 0 0 0 0 0 0 0 0 0 0 0 0 0 0 0 0
0 0 0 0 0 0 0 0 0 0 0 0 0 0 0 0 0 0 0 0 0 0 0 0 0 0 0 0 0 0 0 0 0 0 0 0 0 0 0 0 0 0 0 0
0 0 0 0 0 0 0 0 0 0 0 0 0 0 0 0 0 0 0 0 0 0 0 0 0 0 0 0 0 0 0 0 0 0 0 0 0 0 0 0 0 0 0 0
Wind_Speed
6 5 3 4 4 3 5 5 6 6 5 6 5 4 4 4 5 5 6 6 6 6 6 6 6 6 6 6 5 4 3 4 4 4 4 3 3 3 3 3 3 3 4 4
4 2 1 3 4 3 5 4 6 6 8 5 5 3 4 4 5 6 7 7 7 7 7 7 7 7 6 6 5 4 4 4 4 4 4 4 3 3 3 3 3 3 4 4
4 3 4 5 3 3 3 3 4 5 5 5 5 6 5 5 5 6 7 8 8 8 7 8 8 7 7 6 5 4 4 4 4 4 4 4 4 3 3 3 3 4 4 4
3 4 4 4 0 2 2 1 1 3 4 5 7 7 5 4 4 6 7 8 8 8 8 8 7 6 6 5 5 4 4 4 4 4 4 4 4 4 3 3 3 3 4 4
1 2 7 4 2 1 1 4 1 3 6 7 7 5 4 2 4 5 7 7 7 8 8 7 7 6 6 5 4 4 5 5 4 4 4 4 4 4 3 3 3 3 4 3
2 2 6 4 3 3 1 4 2 2 5 6 6 5 5 5 6 7 7 7 7 7 7 7 7 6 4 5 4 5 5 5 4 4 4 4 4 4 3 2 3 3 4 3
3 4 7 4 4 2 1 5 4 3 5 5 4 5 6 7 7 7 7 8 7 7 6 7 7 5 4 5 5 5 5 5 4 4 4 4 3 3 2 2 2 2 3 3
3 3 7 2 2 2 4 4 4 4 5 5 5 6 6 6 7 8 8 8 7 6 7 7 6 5 5 6 6 5 4 4 4 4 3 3 2 2 2 2 2 2 2 3
5 6 2 1 2 3 2 4 4 4 5 4 4 5 6 6 7 7 8 7 6 6 7 7 6 5 6 7 6 5 5 4 4 4 3 3 2 2 1 1 1 2 2 3
3 4 3 2 2 3 3 4 4 4 4 3 4 5 6 6 6 7 7 7 6 6 7 7 7 7 6 7 6 5 5 4 4 3 3 3 2 2 2 1 2 2 2 2
3 4 4 3 2 3 4 4 4 4 3 3 3 4 5 5 6 6 7 6 6 6 6 7 7 7 7 7 5 4 5 4 4 3 3 3 2 2 2 2 2 2 2 2
5 3 3 5 4 3 4 4 4 4 4 3 2 4 5 5 5 6 6 6 6 6 7 7 7 7 8 7 5 4 4 4 3 3 3 3 2 3 4 4 5 5 5 4
3 3 3 4 4 3 3 4 4 3 3 4 3 3 4 4 5 5 6 7 7 7 7 7 7 8 8 8 6 4 4 4 3 3 3 3 2 3 3 4 5 6 7 7
2 2 2 2 3 4 3 4 3 3 3 3 3 3 4 4 5 6 6 7 7 7 7 7 7 8 8 8 7 5 4 4 4 2 2 2 3 3 2 3 4 4 6 7
3 2 3 4 3 3 3 3 3 3 4 4 3 4 4 5 6 6 6 6 7 7 7 7 7 8 9 8 7 6 4 3 3 2 2 2 3 2 2 2 2 3 3 5
4 3 2 2 3 3 3 3 3 4 4 4 4 5 5 5 5 6 6 6 6 7 8 8 8 8 8 8 7 5 4 6 5 3 3 3 2 2 2 2 2 2 3 3
2 3 3 4 4 3 3 3 3 4 4 4 5 5 5 5 5 6 6 6 6 6 7 7 7 8 8 7 6 5 4 5 7 4 3 3 2 2 2 2 2 2 3 4
3 4 4 4 3 3 4 3 3 3 4 4 4 4 4 4 5 6 7 6 6 6 6 6 7 7 7 7 6 4 4 3 3 3 3 3 3 2 2 2 2 3 3 4
3 3 3 3 2 2 3 3 3 4 4 3 3 4 4 4 5 6 6 6 6 7 7 7 11 8 7 8 8 3 4 3 3 3 3 4 4 3 2 2 3 3 3 3
3 3 2 2 2 2 3 3 3 3 3 3 3 4 4 5 5 5 5 5 4 5 7 8 7 6 6 6 7 3 3 3 3 3 3 2 3 3 3 3 3 3 3 3
3 3 2 2 2 3 3 3 2 3 4 3 3 4 5 6 5 5 4 5 5 6 7 9 6 5 5 6 6 3 3 3 3 3 3 3 3 3 3 3 3 3 3 3
3 2 2 2 2 3 3 2 2 3 3 3 4 4 4 5 5 5 4 4 6 10 6 4 5 7 8 7 3 3 3 3 3 3 3 3 3 3 3 3 3 3 3 3
2 2 2 2 3 3 3 3 3 3 3 4 4 4 4 5 4 4 5 5 5 9 6 4 8 11 11 5 3 3 3 4 3 3 3 3 3 3 3 3 3 3 3 3
2 2 2 2 1 2 3 3 3 3 4 4 4 4 4 4 4 3 4 9 11 10 5 8 12 11 9 3 3 3 3 4 4 3 3 3 3 3 3 3 4 3 3 4
2 2 2 2 2 3 3 3 3 3 3 3 4 4 3 3 4 5 5 6 9 9 6 8 11 10 6 3 4 4 4 4 4 3 3 3 3 4 4 4 4 4 4 4
2 2 2 3 3 3 2 2 2 3 3 4 4 4 4 3 4 4 4 5 7 8 6 5 5 6 4 4 4 4 4 5 5 4 4 4 4 4 4 4 5 5 4 5
2 2 2 2 2 2 2 2 3 3 3 4 5 4 4 4 4 4 5 5 5 5 5 5 4 4 4 4 4 4 4 4 4 4 4 4 4 4 5 6 5 5 5 5
Wind_Direction
259 271 257 252 261 214 201 210 217 241 242 277 290 288 297 305 317 323 329 335 334 332 327 321 320 319 319 315 314 303 289 284 283 284 282 280 282 281 280 279 276 270 267 269
282 276 270 288 285 236 229 232 245 267 278 296 310 318 313 312 318 320 325 328 329 328 326 323 319 317 316 316 314 310 291 285 290 292 290 285 283 278 278 283 284 279 270 271
272 310 344 297 273 196 205 216 204 237 265 323 326 315 305 310 319 320 321 321 322 319 316 314 312 308 304 305 308 308 298 293 296 295 294 291 287 283 279 277 278 279 277 275
291 360 266 247 352 189 203 269 243 271 301 309 300 296 297 306 316 319 317 316 315 313 312 311 308 307 305 308 311 309 307 303 300 299 292 290 285 281 283 282 275 274 275 272
192 267 273 292 331 352 250 285 305 288 303 313 316 309 296 328 330 307 303 303 303 303 303 310 311 310 311 314 318 318 314 307 300 293 291 286 280 280 280 280 282 280 283 276
174 229 255 270 307 312 142 272 317 320 304 311 331 319 299 329 327 318 314 311 311 311 315 319 315 314 313 313 316 310 305 300 297 293 283 279 276 275 275 272 275 283 287 287
206 233 264 288 310 3 171 274 311 297 293 300 285 266 290 314 320 320 319 317 317 320 323 320 320 325 323 322 313 301 302 303 305 303 292 286 279 276 277 275 279 281 286 288
179 216 260 318 67 177 246 294 299 292 291 292 288 296 308 317 322 326 326 325 327 329 326 324 328 333 330 324 313 312 312 312 312 309 304 308 294 291 283 272 274 283 290 296
193 216 255 159 200 256 279 286 291 291 298 300 299 306 316 322 324 325 325 326 330 330 329 332 335 338 331 321 321 326 328 325 323 323 322 316 307 308 308 299 290 293 297 299
250 261 262 253 286 303 294 286 295 298 298 301 303 311 319 323 325 327 327 328 332 338 341 338 338 338 327 323 329 333 335 332 333 334 337 334 330 327 322 311 302 302 301 297
259 286 307 287 288 305 316 319 319 321 317 311 313 317 320 320 322 326 329 333 337 340 337 333 335 337 333 331 333 339 338 337 339 344 340 335 331 330 326 315 318 310 296 292
238 247 242 278 303 320 320 320 322 328 330 331 322 313 321 320 322 327 331 335 338 339 336 334 335 336 335 335 337 340 340 340 338 341 341 337 330 329 333 337 334 335 338 333
251 280 264 284 305 321 313 318 324 326 317 321 328 324 326 325 328 332 335 340 338 334 334 333 336 338 338 337 337 341 333 328 329 335 335 332 330 331 331 336 338 340 340 336
293 311 296 298 302 315 320 326 331 337 334 326 325 330 333 332 332 335 334 331 330 332 333 335 337 338 335 335 336 336 329 329 331 324 323 325 327 327 327 329 332 335 337 346
309 287 268 290 308 326 339 344 349 344 341 339 338 338 337 333 329 326 325 328 334 337 337 338 338 336 336 336 337 334 330 323 323 323 326 325 323 323 322 323 327 333 342 349
308 310 304 305 310 324 336 339 332 322 326 329 333 331 328 323 319 321 326 334 337 333 331 333 334 332 332 334 335 334 334 342 345 343 340 335 332 335 335 335 337 338 338 337
307 305 306 308 306 307 303 299 297 301 312 316 317 322 328 330 330 330 331 332 327 320 321 325 326 327 329 331 332 330 330 336 343 343 340 333 335 337 334 335 335 329 326 332
252 262 265 266 275 288 299 304 302 306 305 306 315 322 324 325 320 320 322 325 327 327 326 326 325 329 331 332 331 328 330 331 334 335 336 335 339 336 331 331 331 328 330 338
282 281 282 281 274 271 281 290 294 298 304 309 311 309 306 306 308 310 315 322 328 328 325 324 331 339 330 327 333 332 333 332 332 332 334 338 343 335 329 327 326 326 327 332
299 301 301 300 301 288 286 293 296 300 302 303 306 310 314 313 314 315 315 308 302 298 305 317 324 322 322 323 334 333 331 328 327 326 327 327 326 325 322 320 320 320 322 323
293 299 300 297 302 299 289 289 290 295 303 303 298 299 303 308 310 311 313 311 310 312 318 326 328 320 322 331 338 336 330 325 322 319 318 318 319 318 318 316 315 316 315 314
281 282 282 288 294 297 297 291 284 288 298 302 301 302 307 311 313 310 292 286 303 318 326 316 313 321 332 339 338 334 331 327 322 321 319 316 315 313 312 312 309 308 308 306
274 271 276 279 277 286 299 295 288 286 285 290 293 295 296 296 299 303 306 304 307 317 325 313 321 329 338 346 336 333 332 328 323 319 315 310 305 302 302 302 299 299 301 302
281 287 287 291 290 292 299 300 297 292 286 284 285 287 291 301 301 285 284 308 319 321 321 319 328 333 341 346 332 327 322 316 310 307 306 304 302 300 298 297 297 297 295 293
280 280 280 287 284 281 287 300 304 301 301 298 297 296 290 281 285 297 301 304 313 322 320 321 326 332 336 323 319 314 310 305 303 305 301 301 299 296 293 291 290 290 289 287
266 264 262 263 266 276 287 293 295 299 304 306 306 301 298 293 289 293 299 303 306 315 317 311 313 318 315 310 308 306 304 307 312 309 300 296 294 293 291 291 290 285 282 281
278 275 279 287 284 279 280 281 283 288 291 290 294 297 299 301 302 303 304 306 306 306 305 305 305 304 303 302 302 300 298 298 296 295 295 292 289 288 288 286 284 283 281 279